Home   Weather   Kanab   Past weeks
Flag for USA

Past Weather in Kanab, Utah, USA — Yesterday and Last 2 Weeks

Now
41 °F

Overcast.


Feels Like: 39 °F
Forecast: 54 / 39 °F
Wind: 3 mph from Southeast

Location: Colorado City Municipal Airport

Current Time: May 22, 2019 at 5:12:21 am

Latest Report: May 22, 2019 at 4:35 am


Visibility: 10 mi

Pressure: 29.67 "Hg (24.63 "Hg at 1515m altitude)

Humidity: 87%

Dew Point: 37 °F

Location of KanabLocation

Past Weather in Kanab — Graph

°F

Kanab Temperature Yesterday

Maximum temperature yesterday: 61 °F (at 3:35 pm)
Minimum temperature yesterday: 43 °F (at 12:15 am)
Average temperature yesterday: 49 °F

High & Low Weather Summary for the Past Weeks

 TemperatureHumidityPressure
High81 °F (May 13, 2:55 pm)100% (May 8, 2:35 am)30.16 "Hg (May 8, 2:35 am)
Low32 °F (May 18, 4:15 am)15% (May 13, 4:55 pm)29.63 "Hg (May 21, 4:35 pm)
Average55 °F61%29.94 "Hg
* Reported May 7 3:15 am — May 22 3:55 am, Kanab. Weather by CustomWeather, © 2019

Note: Actual official high and low records may vary slightly from our data, if they occured in-between our weather recording intervals... More about our weather records

Advertising

Kanab Weather History for the Previous 24 Hours

Scroll right to see more
 ConditionsComfort  
Time TempWeatherWind HumidityBarometerVisibility
3:55 am
Wed, May 22
41 °FOvercast.3 mph93%29.67 "Hg10 mi
3:35 am41 °FPassing clouds.3 mph87%29.67 "Hg10 mi
3:15 am41 °FClear.3 mph87%29.67 "Hg10 mi
2:55 am41 °FPassing clouds.6 mph87%29.67 "Hg10 mi
2:35 am41 °FOvercast.6 mph93%29.68 "Hg10 mi
2:15 am41 °FOvercast.6 mph93%29.68 "Hg10 mi
1:35 am41 °FPassing clouds.7 mph93%29.69 "Hg10 mi
1:15 am41 °FOvercast.8 mph93%29.69 "Hg10 mi
12:55 am41 °FPassing clouds.7 mph93%29.70 "Hg10 mi
12:35 am41 °FPassing clouds.7 mph93%29.70 "Hg10 mi
12:15 am41 °FPassing clouds.6 mph93%29.70 "Hg10 mi
11:55 pm
Tue, May 21
43 °FPassing clouds.6 mph93%29.70 "Hg10 mi
11:35 pm43 °FPartly cloudy.5 mph93%29.71 "Hg10 mi
11:15 pm43 °FPassing clouds.3 mph93%29.72 "Hg10 mi
10:55 pm43 °FClear.No wind87%29.71 "Hg10 mi
10:35 pm43 °FPassing clouds.No wind93%29.71 "Hg10 mi
10:15 pm43 °FPartly cloudy.No wind93%29.70 "Hg10 mi
9:55 pm43 °FMostly cloudy.3 mph93%29.69 "Hg10 mi
9:35 pm43 °FLight rain. Mostly cloudy.7 mph87%29.69 "Hg10 mi
9:15 pm43 °FRain. Mostly cloudy.7 mph93%29.69 "Hg10 mi
8:55 pm45 °FOvercast.6 mph81%29.69 "Hg10 mi
8:35 pm45 °FMore clouds than sun.5 mph87%29.68 "Hg10 mi
8:15 pm45 °FLight rain. Cloudy.3 mph93%29.68 "Hg10 mi
7:35 pm45 °FLight rain. Cloudy.No wind87%29.67 "Hg10 mi
7:15 pm45 °FLight rain. Cloudy.5 mph87%29.68 "Hg10 mi
6:55 pm45 °FLight rain. Mostly cloudy.12 mph87%29.67 "Hg10 mi
6:35 pm45 °FRain. Mostly cloudy.15 mph87%29.68 "Hg5 mi
6:15 pm50 °FLight rain. Cloudy.23 mph62%29.67 "Hg7 mi
5:55 pm52 °FRain. More clouds than sun.8 mph50%29.65 "Hg10 mi
5:35 pm52 °FThundershowers. Overcast.7 mph47%29.63 "Hg10 mi
5:15 pm55 °FMostly cloudy.17 mph38%29.63 "Hg10 mi
4:55 pm57 °FBroken clouds.18 mph36%29.63 "Hg10 mi
4:35 pm61 °FScattered clouds.21 mph31%29.63 "Hg10 mi
4:15 pm59 °FBroken clouds.16 mph34%29.64 "Hg10 mi
3:35 pm61 °FBroken clouds.21 mph31%29.65 "Hg10 mi
3:15 pm59 °FBroken clouds.18 mph31%29.65 "Hg10 mi
2:55 pm59 °FBroken clouds.17 mph34%29.65 "Hg10 mi
2:35 pm59 °FScattered clouds.17 mph34%29.67 "Hg10 mi
2:15 pm59 °FScattered clouds.18 mph34%29.67 "Hg10 mi
1:55 pm59 °FBroken clouds.18 mph34%29.67 "Hg10 mi
1:35 pm59 °FScattered clouds.14 mph31%29.68 "Hg10 mi
1:15 pm59 °FBroken clouds.16 mph31%29.68 "Hg10 mi
12:55 pm57 °FBroken clouds.14 mph36%29.70 "Hg10 mi
12:35 pm59 °FMostly cloudy.10 mph36%29.71 "Hg10 mi
12:15 pm57 °FPartly sunny.10 mph39%29.71 "Hg10 mi
11:55 am57 °FScattered clouds.14 mph39%29.70 "Hg10 mi
11:35 am59 °FPartly sunny.10 mph36%29.72 "Hg10 mi
11:15 am55 °FBroken clouds.6 mph44%29.72 "Hg10 mi
10:55 am55 °FBroken clouds.No wind41%29.75 "Hg10 mi
10:35 am55 °FScattered clouds.No wind41%29.75 "Hg10 mi
10:15 am55 °FScattered clouds.5 mph44%29.75 "Hg10 mi
9:55 am54 °FScattered clouds.3 mph47%29.77 "Hg10 mi
9:35 am54 °FSunny.3 mph47%29.77 "Hg10 mi
9:15 am52 °FScattered clouds.No wind54%29.77 "Hg10 mi
8:55 am54 °FScattered clouds.No wind51%29.78 "Hg10 mi
8:35 am52 °FSunny.No wind58%29.78 "Hg10 mi
8:15 am50 °FScattered clouds.No wind62%29.78 "Hg10 mi
7:35 am45 °FOvercast.No wind93%29.79 "Hg10 mi
7:15 am45 °FBroken clouds.No wind93%29.79 "Hg10 mi
6:55 am43 °FMore clouds than sun.3 mph93%29.79 "Hg10 mi
6:35 am45 °FMore clouds than sun.No wind93%29.79 "Hg10 mi
5:55 am45 °FMostly cloudy.No wind93%29.79 "Hg10 mi
5:35 am45 °FMostly cloudy.No wind93%29.79 "Hg10 mi
5:15 am45 °FMostly cloudy.No wind93%29.80 "Hg10 mi
Weather by CustomWeather, © 2019

See weather overview